FW9692 Weather Reports


Display with metric or nautical units.
time (UTC)temp
F
wind
direction
speed
MPH
gust
MPH
rain 1hr
in
rain 24hr
in
rain mn
in
humidity
%
barometer
mb
20260906060032 81 243 4.0 7.0 0.00 0.10 0.10 58 999.4
20260906054529 80 236 6.0 11.0 0.01 0.10 0.10 60 999.6
20260906053030 80 242 8.0 12.0 0.01 0.10 0.10 60 999.6
20260906051532 79 232 5.0 7.0 0.01 0.10 0.10 65 999.6
20260906050053 79 262 8.0 12.0 0.01 0.10 0.10 63 999.6
20260906044528 79 267 9.0 13.0 0.01 0.09 0.09 64 999.6
20260906043030 79 275 10.0 15.0 0.01 0.09 0.09 64 999.6
20260906041526 82 268 18.0 23.0 0.02 0.09 0.09 57 999.4
20260906040036 77 303 17.0 21.0 0.02 0.09 0.09 68 999.6
20260906034527 78 340 15.0 19.0 0.03 0.08 0.08 68 999.8
20260906033031 77 336 15.0 18.0 0.03 0.08 0.08 73 999.6
20260906031539 77 239 11.0 13.0 0.03 0.07 0.07 72 999.2
20260906030032 78 225 14.0 19.0 0.05 0.07 0.07 68 998.6
20260906024529 78 241 18.0 21.0 0.04 0.06 0.06 65 998.4
20260906023041 79 227 15.0 17.0 0.04 0.05 0.05 63 998.5
20260906021518 79 178 6.0 16.0 0.03 0.04 0.04 59 998.5
20260906020041 78 88 30.0 34.0 0.03 0.03 0.03 65 998.4
20260906014521 83 23 12.0 15.0 0.02 0.02 0.02 55 997.6
20260906013020 82 305 17.0 21.0 0.02 0.02 0.02 57 997.3
20260906011513 83 292 15.0 22.0 0.01 0.01 0.01 53 997.3
20260906010012 86 317 19.0 27.0 0.00 0.00 0.00 47 997.4
20260906004511 90 348 21.0 29.0 0.00 0.00 0.00 40 997.2
20260906003011 92 236 13.0 15.0 0.00 0.00 0.00 36 996.6
20260906001511 93 248 11.0 19.0 0.00 0.00 0.00 36 996.5
20260906000010 94 269 8.0 11.0 0.00 0.00 0.00 33 996.3
20260905234509 94 246 5.0 9.0 0.00 0.00 0.00 33 996.4
20260905233023 94 273 6.0 11.0 0.00 0.00 0.00 35 996.3
20260905231514 93 275 11.0 18.0 0.00 0.00 0.00 34 996.3
20260905230013 93 279 19.0 25.0 0.00 0.00 0.00 34 996.1
20260905224511 94 269 14.0 16.0 0.00 0.00 0.00 34 996.1
20260905223007 96 133 5.0 14.0 0.00 0.00 0.00 29 996.1
20260905221508 97 98 4.0 10.0 0.00 0.00 0.00 29 996.1
20260905220006 95 123 5.0 12.0 0.00 0.00 0.00 30 996.1
20260905214505 95 92 6.0 15.0 0.00 0.00 0.00 30 996.3
20260905213003 95 93 6.0 15.0 0.00 0.00 0.00 30 996.4
20260905211502 96 92 7.0 14.0 0.00 0.00 0.00 31 996.6
20260905210103 97 90 10.0 19.0 0.00 0.00 0.00 30 996.7
20260905204558 97 146 5.0 9.0 0.00 0.00 0.00 30 997.0
20260905203001 97 168 10.0 15.0 0.00 0.00 0.00 30 997.3
20260905201602 96 63 7.0 13.0 0.00 0.00 0.00 32 997.5
20260905200058 96 117 6.0 16.0 0.00 0.00 0.00 32 997.8
20260905194557 95 36 6.0 16.0 0.00 0.00 0.00 33 997.9
20260905193051 95 41 5.0 14.0 0.00 0.00 0.00 34 998.2
20260905191548 94 133 10.0 15.0 0.00 0.00 0.00 35 998.5
20260905190045 94 210 7.0 12.0 0.00 0.00 0.00 37 998.7
20260905184539 94 53 5.0 12.0 0.00 0.00 0.00 37 998.9
20260905183038 93 59 6.0 14.0 0.00 0.00 0.00 38 999.1
20260905181535 93 305 4.0 11.0 0.00 0.00 0.00 39 999.3
20260905180033 92 9 5.0 12.0 0.00 0.00 0.00 41 999.6
20260905174537 91 56 4.0 10.0 0.00 0.00 0.00 43 999.8
20260905173031 91 335 2.0 9.0 0.00 0.00 0.00 43 999.9
20260905171527 89 337 7.0 13.0 0.00 0.00 0.00 44 1000.0
20260905170030 89 11 6.0 14.0 0.00 0.00 0.00 45 1000.0
20260905164529 88 259 7.0 12.0 0.00 0.00 0.00 46 1000.1
20260905163027 88 328 8.0 13.0 0.00 0.00 0.00 46 1000.1
20260905161519 87 294 7.0 12.0 0.00 0.00 0.00 48 1000.1
20260905160044 86 286 7.0 12.0 0.00 0.00 0.00 49 1000.2
20260905154513 85 304 7.0 13.0 0.00 0.00 0.00 51 1000.2
20260905153018 84 279 10.0 12.0 0.00 0.00 0.00 52 1000.2
20260905151509 83 284 7.0 15.0 0.00 0.00 0.00 54 1000.3
20260905150016 82 266 12.0 14.0 0.00 0.00 0.00 54 1000.3
20260905144519 81 257 9.0 13.0 0.00 0.00 0.00 55 1000.5
20260905143003 81 244 10.0 14.0 0.00 0.00 0.00 56 1000.4
20260905141613 80 254 9.0 13.0 0.00 0.00 0.00 57 1000.4
20260905140104 79 262 10.0 13.0 0.00 0.00 0.00 59 1000.3
20260905134607 78 248 10.0 12.0 0.00 0.00 0.00 59 1000.3
20260905133100 77 257 7.0 9.0 0.00 0.00 0.00 60 1000.1
20260905131600 76 243 9.0 11.0 0.00 0.00 0.00 62 999.9
20260905130058 76 269 9.0 11.0 0.00 0.00 0.00 62 999.8
20260905124555 76 262 6.0 8.0 0.00 0.00 0.00 62 999.7
20260905123057 76 249 5.0 7.0 0.00 0.00 0.00 63 999.5
20260905121552 76 272 6.0 11.0 0.00 0.00 0.00 62 999.3
20260905120057 76 262 9.0 13.0 0.00 0.00 0.00 61 999.2
20260905114624 77 269 12.0 15.0 0.00 0.00 0.00 60 999.1
20260905113056 77 281 11.0 13.0 0.00 0.00 0.00 62 999.1
20260905111553 78 294 10.0 11.0 0.00 0.00 0.00 60 999.0
20260905110050 79 288 8.0 10.0 0.00 0.00 0.00 57 999.0
20260905104551 79 319 4.0 6.0 0.00 0.00 0.00 57 998.9
20260905103046 80 302 8.0 9.0 0.00 0.00 0.00 55 998.8
20260905101550 80 18 3.0 5.0 0.00 0.00 0.00 55 998.9
20260905100106 78 300 4.0 5.0 0.00 0.00 0.00 59 998.6
20260905094603 77 50 3.0 8.0 0.00 0.00 0.00 62 998.9
20260905093037 78 269 9.0 11.0 0.00 0.00 0.00 60 998.4
20260905091544 79 281 9.0 10.0 0.00 0.00 0.00 57 998.4
20260905090033 78 303 9.0 11.0 0.00 0.00 0.00 58 998.6
20260905084530 78 301 7.0 12.0 0.00 0.00 0.00 57 998.5
20260905083030 79 319 10.0 12.0 0.00 0.00 0.00 56 998.5
20260905081530 80 297 11.0 13.0 0.00 0.00 0.00 54 998.5
20260905080038 80 312 9.0 11.0 0.00 0.00 0.00 54 998.4
20260905074542 80 277 3.0 9.0 0.00 0.00 0.00 55 998.6
20260905073042 79 105 3.0 11.0 0.00 0.00 0.00 59 998.8
20260905071531 80 257 7.0 9.0 0.00 0.00 0.00 56 998.6
20260905070031 82 239 8.0 11.0 0.00 0.00 0.00 51 998.6
20260905064529 82 221 8.0 11.0 0.00 0.00 0.00 51 998.5
20260905063030 82 217 11.0 16.0 0.00 0.00 0.00 51 998.5
20260905061532 82 201 10.0 11.0 0.00 0.00 0.00 53 998.5